This demonstration page uses our WeatherBlox Daily Observations layout. Learn more.

39.29038, -76.61219

Hourly Observations for March 21, 2019

Temp ( °F °C ) Dew Point ( °F °C ) Humidity (%) Winds ( mph kmh ) Pressure ( in mb ) Visibility ( mi km ) Precip ( " mm )
12:54 am 00:54 undefined 45 7.2 36 2.2 71 71 undefined N/A 30.18 1022 N/A 0 0
1:54 am 01:54 undefined 45 7.2 36 2.2 71 71 undefined N/A 30.17 1022 N/A 0 0
2:54 am 02:54 undefined 45 7.2 37 2.8 74 74 undefined N/A 30.15 1021 N/A 0.01 0.254
3:54 am 03:54 undefined 44 6.7 39 3.9 83 83 undefined N/A 30.1 1019 N/A 0 0
4:54 am 04:54 undefined 44 6.7 39 3.9 83 83 undefined N/A 30.06 1018 N/A 0.01 0.254
5:54 am 05:54 undefined 44 6.7 41 5 89 89 undefined N/A 30.05 1018 N/A 0.03 0.762
6:54 am 06:54 undefined 45 7.2 42 5.6 90 90 undefined N/A 30.02 1017 N/A 0.06 1.524
7:54 am 07:54 undefined 46 7.8 43 6.1 89 89 undefined N/A 30.01 1016 N/A 0.07 1.778
8:54 am 08:54 undefined 46 7.8 44 6.7 93 93 undefined N/A 29.99 1016 N/A 0.04 1.016
9:54 am 09:54 undefined 47 8.3 44 6.7 90 90 undefined N/A 29.98 1015 N/A 0.09 2.286
10:54 am 10:54 undefined 47 8.3 45 7.2 93 93 undefined N/A 29.97 1015 N/A 0.16 4.064
11:54 am 11:54 undefined 48 8.9 45 7.2 89 89 undefined N/A 29.93 1014 N/A 0.14 3.556
12:54 pm 12:54 undefined 47 8.3 44 6.7 90 90 undefined N/A 29.88 1012 N/A 0.13 3.302
1:54 pm 13:54 undefined 47 8.3 44 6.7 90 90 undefined N/A 29.82 1010 N/A 0.08 2.032
2:54 pm 14:54 undefined 49 9.4 46 7.8 90 90 undefined N/A 29.76 1008 N/A 0.05 1.27
3:54 pm 15:54 undefined 51 10.6 48 8.9 89 89 undefined N/A 29.71 1006 N/A 0.04 1.016
4:54 pm 16:54 undefined 51 10.6 48 8.9 89 89 undefined N/A 29.67 1005 N/A 0.03 0.762
5:54 pm 17:54 undefined 51 10.6 48 8.9 89 89 undefined N/A 29.62 1003 N/A 0.09 2.286
6:54 pm 18:54 undefined 50 10 48 8.9 93 93 undefined N/A 29.57 1001 N/A 0.16 4.064
7:54 pm 19:54 undefined 50 10 48 8.9 93 93 undefined N/A 29.57 1001 N/A 0.49 12.446
8:54 pm 20:54 undefined 51 10.6 49 9.4 92 92 undefined N/A 29.55 1001 N/A 0.16 4.064
9:54 pm 21:54 undefined 50 10 48 8.9 93 93 undefined N/A 29.52 1000 N/A 0.11 2.794
10:54 pm 22:54 undefined 49 9.4 46 7.8 90 90 undefined N/A 29.49 999 N/A 0.14 3.556
11:54 pm 23:54 undefined 48 8.9 44 6.7 86 86 undefined N/A 29.48 998 N/A 0.01 0.254

Powered by AerisWeather